Weather History for Seward, AK

Change the Weather History Date:

Friday, November 30, 2012

  Actual Average Record
Temperature  
Mean Temperature 22 °F -  
Max Temperature 25 °F 31 °F 46 °F (1976)
Min Temperature 18 °F 22 °F -2 °F (1990)
Degree Days  
Heating Degree Days 44    
Moisture  
Dew Point 2 °F    
Average Humidity 43    
Maximum Humidity 54    
Minimum Humidity 36    
Precipitation  
Precipitation 0.00 in - - ()
Sea Level Pressure  
Sea Level Pressure 29.54 in    
Wind  
Wind Speed 20 mph (NNE)    
Max Wind Speed 28 mph    
Max Gust Speed 47 mph    
Visibility 10 miles    
Events      
Averages and records for this station are not official NWS values.
T = Trace of Precipitation, MM = Missing Value Source: NWS Daily Summary

Daily Weather History Graph

Daily Weather History Graph

Search for Another Location

Airport:

Trip Planner

Search our weather history database for the weather conditions in past years. The results will help you decide how hot, cold, wet, or windy it might be!

Date:

Astronomy

Nov. 30, 2012 Rise Set
Actual Time 9:33 AM AKST 3:59 PM AKST
Civil Twilight 8:38 AM AKST 4:54 PM AKST
Nautical Twilight 7:43 AM AKST 5:49 PM AKST
Astronomical Twilight 6:52 AM AKST 6:39 PM AKST
Moon 6:08 PM AKST (11/30) 11:08 AM AKST (11/30)
Length of Visible Light 8h 15m
Length of Day
6h 26m
Waning Gibbous, 95% of the Moon is Illuminated
Nov 30
Waning Gibbous
Dec 6
Last Quarter
Dec 12
New
Dec 19
First Quarter
Dec 28
Full

Hourly Weather History & Observations

Time (AKST) Temp. Windchill Dew Point Humidity Pressure Visibility Wind Dir Wind Speed Gust Speed Precip Events Conditions
12:53 AM 18.0 °F 5.4 °F 3.0 °F 52% 29.53 in 10.0 mi North 11.5 mph 20.7 mph N/A   Clear
1:53 AM 18.0 °F 2.2 °F 3.9 °F 54% 29.54 in 10.0 mi NNE 18.4 mph 25.3 mph N/A   Clear
3:53 AM 19.9 °F 4.3 °F -0.0 °F 42% 29.53 in 10.0 mi NNE 19.6 mph 32.2 mph N/A   Clear
4:53 AM 18.0 °F 2.2 °F 3.9 °F 54% 29.55 in 10.0 mi North 18.4 mph 29.9 mph N/A   Clear
5:53 AM 18.0 °F 2.6 °F 3.9 °F 54% 29.55 in 10.0 mi NNE 17.3 mph 29.9 mph N/A   Clear
6:53 AM 19.0 °F 2.7 °F 1.0 °F 46% 29.55 in 10.0 mi NNE 20.7 mph 31.1 mph N/A   Clear
7:53 AM 21.0 °F 5.7 °F -0.0 °F 40% 29.55 in 10.0 mi North 19.6 mph 33.4 mph N/A   Clear
8:53 AM 19.0 °F 1.6 °F 1.0 °F 46% 29.54 in 10.0 mi NNE 24.2 mph 34.5 mph N/A   Clear
9:53 AM 19.9 °F 3.9 °F 1.9 °F 46% 29.55 in 10.0 mi NNE 20.7 mph 33.4 mph N/A   Clear
10:53 AM 23.0 °F 6.0 °F 1.9 °F 40% 29.56 in 10.0 mi NNE 27.6 mph 35.7 mph N/A   Clear
11:53 AM 21.9 °F 6.9 °F 3.0 °F 44% 29.57 in 10.0 mi NNE 19.6 mph 32.2 mph N/A   Clear
12:53 PM 21.9 °F 6.5 °F 3.9 °F 46% 29.55 in 10.0 mi NNE 20.7 mph 31.1 mph N/A   Clear
1:53 PM 24.1 °F 8.3 °F 1.9 °F 38% 29.53 in 10.0 mi North 24.2 mph 38.0 mph N/A   Clear
2:53 PM 24.1 °F 7.7 °F 1.9 °F 38% 29.52 in 10.0 mi North 26.5 mph 44.9 mph N/A   Clear
3:53 PM 25.0 °F 8.6 °F 1.0 °F 36% 29.54 in 10.0 mi North 27.6 mph 47.2 mph N/A   Clear
4:53 PM 24.1 °F 7.4 °F 3.0 °F 40% 29.52 in 10.0 mi NNE 27.6 mph 38.0 mph N/A   Clear
5:53 PM 24.1 °F 7.7 °F 1.9 °F 38% 29.52 in 10.0 mi North 26.5 mph 39.1 mph N/A   Clear
6:53 PM 24.1 °F 9.4 °F 1.9 °F 38% 29.52 in 10.0 mi North 20.7 mph 38.0 mph N/A   Clear
7:53 PM 24.1 °F 8.0 °F 1.9 °F 38% 29.52 in 10.0 mi North 25.3 mph 33.4 mph N/A   Clear
8:53 PM 25.0 °F 9.2 °F 1.9 °F 37% 29.51 in 10.0 mi North 25.3 mph 35.7 mph N/A   Clear
9:53 PM 24.1 °F 10.1 °F 1.9 °F 38% 29.51 in 10.0 mi NNE 18.4 mph 32.2 mph N/A   Clear
10:53 PM 24.1 °F 9.4 °F 1.9 °F 38% 29.52 in 10.0 mi North 20.7 mph 29.9 mph N/A   Clear
11:53 PM 24.1 °F 10.6 °F 1.9 °F 38% 29.53 in 10.0 mi North 17.3 mph 27.6 mph N/A   Clear